This demonstration page uses our WeatherBlox Daily Observations layout. Learn more.

Left ArrowRight Arrow

Hourly Observations for February 4, 2016

Temp ( °F °C ) Dew Point ( °F °C ) Humidity (%) Winds ( mph kmh ) Pressure ( in mb ) Visibility ( mi km ) Precip ( " mm )
12:53 am 00:53 Clear 21 -6.1 16 -8.9 81 81 SW 7 11 30.15 1021 10 16 0.00 0.00
1:53 am 01:53 Clear 20 -6.7 15 -9.4 81 81 WSW 6 9 30.15 1021 10 16 0.00 0.00
2:53 am 02:53 Clear 21 -6.1 16 -8.9 81 81 SW 9 15 30.04 1017 10 16 0.00 0.00
3:53 am 03:53 Clear 20 -6.7 15 -9.4 81 81 SW 7 11 30.04 1017 10 16 0.00 0.00
4:53 am 04:53 Mostly Clear 20 -6.7 15 -9.4 81 81 NNW 3 6 30.04 1017 10 16 0.00 0.00
5:53 am 05:53 Cloudy 26 -3.3 18 -7.8 71 71 VRB 3 6 30.03 1017 10 16 0.00 0.00
6:53 am 06:53 Cloudy 30 -1.1 21 -6.1 69 69 SW 15 24 30.01 1016 10 16 0.00 0.00
7:53 am 07:53 Cloudy 31 -0.6 21 -6.1 67 67 SW 14 22 30.01 1016 10 16 0.00 0.00
8:53 am 08:53 Cloudy 33 0.6 21 -6.1 61 61 SW 18 30 30.01 1016 10 16 0.00 0.00
9:53 am 09:53 Cloudy 35 1.7 22 -5.6 59 59 SW 18 30 30.01 1016 10 16 0.00 0.00
10:53 am 10:53 Cloudy 37 2.8 23 -5 57 57 SW 21 33 29.99 1016 10 16 0.00 0.00
11:53 am 11:53 Cloudy 38 3.3 24 -4.4 57 57 SW 20 31 29.97 1015 10 16 0.00 0.00
12:53 pm 12:53 Sunny 42 5.6 23 -5 47 47 W 26 43 29.95 1014 10 16 0.00 0.00
1:53 pm 13:53 Sunny 43 6.1 23 -5 45 45 W 17 28 29.97 1015 10 16 0.00 0.00
2:53 pm 14:53 Cloudy 42 5.6 20 -6.7 41 41 NW 21 33 29.99 1016 10 16 0.00 0.00
3:53 pm 15:53 Cloudy 39 3.9 22 -5.6 50 50 NW 26 43 30.05 1018 10 16 0.00 0.00
4:53 pm 16:53 Cloudy 34 1.1 28 -2.2 79 79 WNW 15 24 30.11 1020 10 16 0.00 0.00
5:53 pm 17:53 Cloudy 32 0 29 -1.7 88 88 WNW 10 17 30.13 1020 10 16 0.00 0.03
6:53 pm 18:53 Cloudy 32 0 29 -1.7 88 88 W 9 15 30.15 1021 10 16 0.00 0.00
7:53 pm 19:53 Cloudy 31 -0.6 29 -1.7 92 92 W 7 11 30.18 1022 10 16 0.00 0.00
8:53 pm 20:53 Clear 29 -1.7 26 -3.3 89 89 WSW 9 15 30.19 1023 10 16 0.00 0.00
9:53 pm 21:53 Mostly Cloudy 28 -2.2 26 -3.3 92 92 SW 12 19 30.22 1023 10 16 0.00 0.00
10:53 pm 22:53 Mostly Clear 27 -2.8 24 -4.4 89 89 SW 10 17 30.24 1024 10 16 0.00 0.00
11:53 pm 23:53 Clear 24 -4.4 22 -5.6 91 91 WSW 7 11 30.26 1025 10 16 0.00 0.00

Powered by AerisWeather